Miscellaneous Local Product
Issued by NWS North Platte, NE

Home | Current Version | Previous Version | Text Only | Print | Product List | Glossary On
Versions: 1 2 3 4 5 6 7 8 9 10 11 12 13 14 15 16 17 18 19 20 21 22 23 24 25 26 27 28 29 30 31 32 33 34 35 36 37 38 39 40 41 42 43 44 45 46 47 48 49 50
000
AXUS43 KLBF 241310
MISLBF


WESTERN AND NORTH CENTRAL NEBRASKA HOURLY WEATHER ROUNDUP
NATIONAL WEATHER SERVICE NORTH PLATTE NE
800 AM CDT THU APR 24 2014

***STATIONS NOT REPORTING VARIABLES SUCH AS SKY/WEATHER OR
PRESSURE ARE PROVIDED BY THE NEBRASKA DEPARTMENT OF
ROADS...RAWS...AND APRS NETWORKS...AND ARE NOT UNDER
NATIONAL WEATHER SERVICE QUALITY CONTROL***

...OBSERVATIONS IN AND NEAR THE EASTERN PANHANDLE OF NEBRASKA...

CITY           SKY/WX    TMP DP  RH WIND       PRES   REMARKS
PINE RIDGE     SUNNY     37  32  82 S6        29.90R WCI  32
CHADRON        SUNNY     35  29  78 SW3       29.92R
ALLIANCE       SUNNY     33  27  78 W12       29.92R WCI  24
SIDNEY         SUNNY     39  19  44 W12       29.96R WCI  32
WHITECLAY        N/A     35  28  78 E6          N/A  WCI  29
CRESCENT LAKE    N/A     36  31  82 NW5         N/A  WCI  32
LISCO            N/A     35  29  78 SW8         N/A  WCI  28
BIG SPRINGS      N/A     41  35  77 NW3         N/A
LEWELLEN         N/A     40  34  77 NW10        N/A  WCI  34
$$

...OBSERVATIONS IN SOUTHWEST NEBRASKA AND FAR NORTHEAST COLORADO...

CITY           SKY/WX    TMP DP  RH WIND       PRES   REMARKS
WRAY           FAIR      43  24  46 NW15      29.94R
HOLYOKE        FAIR      43  30  61 NW16G25   29.94R
IMPERIAL       PTSUNNY   45  32  60 NW16G24   29.91R
OGALLALA       MOSUNNY   43  32  65 NW14      29.91R
NORTH PLATTE   CLOUDY    45  35  68 NW12      29.87R
MCCOOK         CLOUDY    50  36  58 NW16      29.86R
LEXINGTON      MOSUNNY   51  37  59 NW13      29.83R
PAXTON           N/A     47  37  68 W6          N/A
SUTHERLAND       N/A     39  33  78 W6          N/A
GOTHENBURG       N/A     49  36  61 W5G15       N/A
CALLAWAY         N/A     46  35  65 NW10        N/A
$$

...OBSERVATIONS IN NORTH CENTRAL NEBRASKA...

CITY           SKY/WX    TMP DP  RH WIND       PRES   REMARKS
VALENTINE      MOSUNNY   43  31  62 W15       29.84R
THEDFORD       MOSUNNY   45  33  62 W10       29.86R
AINSWORTH      MOSUNNY   46  33  59 NW9       29.82S
O`NEILL        CLOUDY    49  35  57 NW14      29.78R
ORD            CLOUDY    50  37  61 NW15      29.79R
BROKEN BOW     MOSUNNY   49  32  52 NW17      29.81R
BROWNLEE         N/A     47  35  63 W9          N/A
SPRINGVIEW       N/A     47  33  58 W7          N/A
DUNNING          N/A     47  32  55 NW13        N/A
BREWSTER         N/A     48  33  55 NW12        N/A
ROSE             N/A     48  36  61 SW9         N/A
NEWPORT          N/A     49  34  55 NW15        N/A
COMSTOCK         N/A     52  37  57 N8          N/A
CHAMBERS         N/A     50  34  55 N8          N/A
EWING            N/A     50  39  67 NW8G17      N/A
$$

...SOME WEATHER OBSERVATIONS FROM AROUND THE REGION...

CITY           SKY/WX    TMP DP  RH WIND       PRES   REMARKS
DENVER         CLEAR     37  19  48 W7        30.01R WCI  32
LARAMIE        CLEAR     27  14  58 SW13      30.00S WCI  16
CHEYENNE       CLEAR     32  15  49 W12       29.98S WCI  23
SCOTTSBLUFF    CLEAR     33  23  66 NW8       29.96R WCI  26
RAPID CITY     SUNNY     40  22  48 W7        29.85S
PIERRE         MOSUNNY   45  31  58 NW12      29.78R
WINNER         FAIR      45  33  63 W15       29.80R
SIOUX FALLS    CLOUDY    46  45  96 N7        29.68R FOG
OMAHA          LGT RAIN  49  46  90 N7        29.62F FOG
GRAND ISLAND   CLOUDY    52  43  71 NW18      29.76R
KANSAS CITY    RAIN      60  52  74 SE16      29.65F
WICHITA        CLOUDY    58  55  90 NW20G26   29.66R
HAYS           PTSUNNY   54  45  71 N14       29.78R
LIBERAL        CLOUDY    52  34  50 N16       29.91F
GOODLAND       PTSUNNY   46  35  65 NW17      29.94R
$$



USA.gov is the U.S. government's official web portal to all federal, state and local government web resources and services.